Weather History for Guymon, OK

Change the Weather History Date:

Monday, July 15, 2013

  Actual Average Record
Temperature  
Mean Temperature 68 °F 80 °F  
Max Temperature 78 °F 95 °F 106 °F (2011)
Min Temperature 58 °F 66 °F 58 °F (2013)
Degree Days  
Heating Degree Days 0 0  
Month to date heating degree days 0 0  
Since 1 June heating degree days 0 8  
Since 1 July heating degree days 0 0  
Cooling Degree Days 3 15  
Month to date cooling degree days 227 215  
Year to date cooling degree days 867 603  
Since 1 June cooling degree days 663 495  
Growing Degree Days 16 (Base 50)    
Moisture  
Dew Point 58 °F    
Average Humidity 75    
Maximum Humidity 100    
Minimum Humidity 49    
Precipitation  
Precipitation 0.01 in 0.10 in 0.90 in (2004)
Month to date precipitation 0.50 1.28  
Year to date precipitation 5.78 10.47  
Snow  
Snow 0.00 in - - ()
Month to date snowfall 0.0  
Since 1 June snowfall T  
Since 1 July snowfall 0.0  
Snow Depth 0.00 in    
Sea Level Pressure  
Sea Level Pressure 30.11 in    
Wind  
Wind Speed 6 mph (NE)    
Max Wind Speed 18 mph    
Max Gust Speed 22 mph    
Visibility 8 miles    
Events Fog , Rain    
T = Trace of Precipitation, MM = Missing Value Source: NWS Daily Summary

Daily Weather History Graph

Daily Weather History Graph

Search for Another Location

Airport:

Trip Planner

Search our weather history database for the weather conditions in past years. The results will help you decide how hot, cold, wet, or windy it might be!

Date:

Astronomy

Jul. 15, 2013 Rise Set
Actual Time 6:39 AM CDT 9:04 PM CDT
Civil Twilight 6:09 AM CDT 9:34 PM CDT
Nautical Twilight 5:32 AM CDT 10:10 PM CDT
Astronomical Twilight 4:52 AM CDT 10:51 PM CDT
Moon 1:47 PM CDT (7/15) 12:30 AM CDT (7/15)
Length of Visible Light 15h 24m
Length of Day
14h 25m
Waxing Crescent, 45% of the Moon is Illuminated
Jul 15
Waxing Crescent
Jul 15
First Quarter
Jul 22
Full
Jul 29
Last Quarter
Aug 6
New

Hourly Weather History & Observations

Time (CDT) Temp. Dew Point Humidity Pressure Visibility Wind Dir Wind Speed Gust Speed Precip Events Conditions
12:53 AM 64.0 °F 59.0 °F 84% 30.06 in 10.0 mi SSE 3.5 mph - N/A   Overcast
1:53 AM 63.0 °F 59.0 °F 87% 30.05 in 10.0 mi Calm Calm - N/A   Mostly Cloudy
2:53 AM 63.0 °F 59.0 °F 87% 30.05 in 10.0 mi Calm Calm - N/A   Overcast
3:28 AM 62.6 °F 59.0 °F 88% 30.17 in 10.0 mi Calm Calm - N/A   Mostly Cloudy
3:53 AM 63.0 °F 60.1 °F 90% 30.05 in 10.0 mi Calm Calm - N/A   Overcast
4:18 AM 62.6 °F 60.8 °F 94% 30.17 in 10.0 mi North 3.5 mph - N/A   Overcast
4:40 AM 62.6 °F 60.8 °F 94% 30.17 in 10.0 mi North 3.5 mph - N/A   Overcast
4:53 AM 63.0 °F 60.1 °F 90% 30.05 in 10.0 mi North 4.6 mph - N/A   Overcast
5:12 AM 62.6 °F 59.0 °F 88% 30.17 in 7.0 mi North 5.8 mph - N/A   Partly Cloudy
5:53 AM 59.0 °F 57.9 °F 96% 30.06 in 4.0 mi NNE 3.5 mph - N/A   Clear
6:23 AM 59.0 °F 57.2 °F 94% 30.17 in 1.8 mi Calm Calm - N/A   Clear
6:36 AM 60.8 °F 57.2 °F 88% 30.17 in 0.5 mi North 3.5 mph - N/A Fog Fog
6:45 AM 59.0 °F 57.2 °F 94% 30.18 in 2.0 mi NNE 4.6 mph - N/A   Partly Cloudy
6:51 AM 59.0 °F 57.2 °F 94% 30.19 in 1.2 mi Calm Calm - N/A   Scattered Clouds
6:53 AM 57.9 °F 57.0 °F 97% 30.08 in 0.8 mi North 3.5 mph - N/A   Scattered Clouds
7:07 AM 59.0 °F 57.2 °F 94% 30.19 in 0.2 mi North 4.6 mph - N/A Fog Fog
7:14 AM 59.0 °F 57.2 °F 94% 30.19 in 0.2 mi NNW 3.5 mph - N/A Fog Fog
7:29 AM 60.8 °F 59.0 °F 94% 30.19 in 1.0 mi North 3.5 mph - N/A   Mostly Cloudy
7:33 AM 60.8 °F 59.0 °F 94% 30.19 in 3.0 mi North 3.5 mph - N/A   Mostly Cloudy
7:40 AM 60.8 °F 59.0 °F 94% 30.19 in 4.0 mi North 4.6 mph - N/A   Mostly Cloudy
7:53 AM 61.0 °F 59.0 °F 93% 30.10 in 5.0 mi North 5.8 mph - N/A   Mostly Cloudy
8:00 AM 60.8 °F 59.0 °F 94% 30.20 in 6.0 mi NNE 5.8 mph - N/A   Scattered Clouds
8:16 AM 62.6 °F 60.8 °F 94% 30.20 in 9.0 mi NNE 5.8 mph - N/A   Mostly Cloudy
8:53 AM 64.9 °F 60.1 °F 84% 30.12 in 10.0 mi ENE 6.9 mph - N/A   Overcast
9:37 AM 68.0 °F 60.8 °F 78% 30.22 in 10.0 mi NE 9.2 mph - N/A   Overcast
9:53 AM 68.0 °F 60.1 °F 76% 30.11 in 10.0 mi NNE 9.2 mph - N/A   Mostly Cloudy
10:17 AM 71.6 °F 59.0 °F 64% 30.20 in 10.0 mi NE 8.1 mph - N/A   Mostly Cloudy
10:24 AM 71.6 °F 59.0 °F 64% 30.21 in 10.0 mi ENE 6.9 mph - N/A   Scattered Clouds
10:53 AM 72.0 °F 57.0 °F 59% 30.10 in 10.0 mi NE 5.8 mph - N/A   Mostly Cloudy
11:53 AM 70.0 °F 55.0 °F 59% 30.10 in 10.0 mi ENE 6.9 mph - N/A   Overcast
12:53 PM 73.9 °F 55.0 °F 52% 30.07 in 10.0 mi NE 10.4 mph - N/A   Mostly Cloudy
1:53 PM 75.0 °F 55.0 °F 50% 30.05 in 10.0 mi NNE 8.1 mph - N/A   Mostly Cloudy
2:53 PM 69.1 °F 59.0 °F 70% 30.07 in 10.0 mi ENE 4.6 mph - 0.01 in Rain Light Rain
3:53 PM 70.0 °F 57.9 °F 65% 30.05 in 10.0 mi ENE 5.8 mph - 0.00 in   Overcast
4:53 PM 72.0 °F 57.9 °F 61% 30.03 in 10.0 mi NNE 4.6 mph - 0.00 in   Overcast
5:53 PM 73.0 °F 57.0 °F 57% 30.02 in 10.0 mi North 3.5 mph - N/A   Mostly Cloudy
6:53 PM 73.9 °F 53.1 °F 48% 30.01 in 10.0 mi East 6.9 mph - N/A   Mostly Cloudy
7:53 PM 73.0 °F 55.0 °F 53% 30.01 in 10.0 mi East 8.1 mph - N/A   Overcast
8:53 PM 70.0 °F 57.0 °F 63% 30.03 in 10.0 mi ESE 8.1 mph - N/A   Overcast
9:53 PM 69.1 °F 57.0 °F 65% 30.04 in 10.0 mi ESE 6.9 mph - N/A   Overcast
10:53 PM 68.0 °F 57.9 °F 70% 30.06 in 10.0 mi SSE 6.9 mph - N/A   Overcast
11:53 PM 66.9 °F 59.0 °F 76% 30.08 in 10.0 mi SE 5.8 mph - N/A   Overcast